Powrót do katalogu

SHENQI

AktywnyNaukaSSO
NORAD 61230·PAYLOAD·🇨🇳 China
Ta nazwa satelity nie została jeszcze potwierdzona przez oficjalne źródła.

Wystrzelony Sep 24, 2024 z Yellow Sea Launch Area

Loading…

Następne Przeloty (najbliższe 24 godziny)

TLE

ŚwieżeSource: Space-Track

Epoka: Sep 14, 2026, 13:13 UTC

1 61230U 24173D   26257.55076242  .00011550  00000-0  37163-3 0  9997
2 61230  97.3494 336.0447 0007306 302.1126  57.9407 15.32366536110136

Śledź SHENQI w czasie rzeczywistym z AllMySat

Download on the App Store